ITY1184 LICA-LIML

Flight info

Callsign ITY1184
Flight time 1h 26m
Altitude 18000
Route ARBUM M620 EVINO/N0445F380 DCT SOR DCT LAT DCT OST DCT MEDAL DCT GILIO DCT KARDU DCT EMBOS DCT GIPIX DCT KALMO
Aircraft A20N/M-SDE2E3FGHIRWXY/LB1

Departure

Time 2026-04-20 19:08
Airport Lamezia Terme Sant'Eufemia International Airport (LICA)

Arrival

Time 2026-04-20 20:35
Airport Milano Linate Airport (LIML)
Time Latitude Longitude Altitude Speed Heading
2026-04-20 18:20 38.90872 16.24536 31 ft 0 kts 56°
2026-04-20 19:00 38.90871 16.24543 32 ft 1 kts 90°
2026-04-20 19:01 38.90865 16.24553 32 ft 1 kts 140°
2026-04-20 19:01 38.90852 16.24551 32 ft 2 kts 195°
2026-04-20 19:01 38.90837 16.24540 32 ft 2 kts 186°
2026-04-20 19:01 38.90813 16.24540 32 ft 4 kts 167°
2026-04-20 19:02 38.90780 16.24570 32 ft 8 kts 143°
2026-04-20 19:02 38.90730 16.24622 32 ft 11 kts 133°
2026-04-20 19:02 38.90707 16.24722 31 ft 13 kts 96°
2026-04-20 19:02 38.90696 16.24854 30 ft 16 kts 97°
2026-04-20 19:03 38.90673 16.25006 32 ft 19 kts 101°
2026-04-20 19:03 38.90651 16.25177 31 ft 20 kts 98°
2026-04-20 19:03 38.90632 16.25369 33 ft 23 kts 98°
2026-04-20 19:03 38.90605 16.25580 32 ft 25 kts 99°
2026-04-20 19:04 38.90583 16.25782 32 ft 21 kts 98°
2026-04-20 19:04 38.90559 16.25975 34 ft 20 kts 99°
2026-04-20 19:04 38.90538 16.26142 32 ft 19 kts 99°
2026-04-20 19:04 38.90532 16.26170 32 ft 0 kts 118°
2026-04-20 19:05 38.90523 16.26178 32 ft 4 kts 150°
2026-04-20 19:05 38.90493 16.26196 31 ft 0 kts 154°
2026-04-20 19:06 38.90460 16.26217 30 ft 7 kts 154°
2026-04-20 19:06 38.90412 16.26248 32 ft 8 kts 153°
2026-04-20 19:07 38.90376 16.26269 32 ft 9 kts 162°
2026-04-20 19:07 38.90319 16.26246 34 ft 9 kts 232°
2026-04-20 19:07 38.90317 16.26155 34 ft 15 kts 277°
2026-04-20 19:07 38.90361 16.25747 33 ft 88 kts 278°
2026-04-20 19:08 38.90492 16.24641 38 ft 159 kts 277°
2026-04-20 19:08 38.90866 16.21830 1799 ft 163 kts 280°
2026-04-20 19:08 38.91069 16.20340 2500 ft 176 kts 281°
2026-04-20 19:09 38.91262 16.18731 3156 ft 189 kts 279°
2026-04-20 19:09 38.91457 16.16968 3692 ft 211 kts 279°
2026-04-20 19:09 38.91669 16.15002 4301 ft 232 kts 279°
2026-04-20 19:09 38.91958 16.12888 4997 ft 248 kts 289°
2026-04-20 19:10 38.92767 16.10875 5754 ft 259 kts 308°
2026-04-20 19:10 38.93979 16.09133 6673 ft 265 kts 312°
2026-04-20 19:10 38.95187 16.07380 7664 ft 266 kts 310°
2026-04-20 19:10 38.96428 16.05552 8648 ft 270 kts 315°
2026-04-20 19:11 38.97952 16.04120 9599 ft 274 kts 326°
2026-04-20 19:11 38.99574 16.02793 10463 ft 282 kts 327°
2026-04-20 19:11 39.01302 16.01400 10867 ft 304 kts 327°
2026-04-20 19:11 39.03166 15.99914 11252 ft 325 kts 327°
2026-04-20 19:12 39.05083 15.98394 12019 ft 330 kts 327°
2026-04-20 19:12 39.07045 15.96841 12941 ft 332 kts 327°
2026-04-20 19:12 39.09024 15.95274 13817 ft 335 kts 327°
2026-04-20 19:12 39.11021 15.93688 14595 ft 339 kts 326°
2026-04-20 19:13 39.13060 15.92068 15376 ft 342 kts 326°
2026-04-20 19:13 39.15068 15.90470 16118 ft 345 kts 326°
2026-04-20 19:13 39.17116 15.88838 16895 ft 348 kts 326°
2026-04-20 19:13 39.19189 15.87187 17643 ft 351 kts 326°
2026-04-20 19:14 39.21278 15.85521 18377 ft 355 kts 326°
2026-04-20 19:14 39.23413 15.83816 19030 ft 358 kts 326°
2026-04-20 19:14 39.25504 15.82147 19667 ft 360 kts 326°
2026-04-20 19:14 39.27624 15.80399 20303 ft 362 kts 322°
2026-04-20 19:15 39.29600 15.78366 20938 ft 364 kts 317°
2026-04-20 19:15 39.31530 15.76224 21566 ft 367 kts 317°
2026-04-20 19:15 39.33479 15.74079 22185 ft 370 kts 317°
2026-04-20 19:15 39.35450 15.71913 22803 ft 373 kts 317°
2026-04-20 19:16 39.37438 15.69726 23407 ft 376 kts 317°
2026-04-20 19:16 39.39436 15.67526 23944 ft 379 kts 317°
2026-04-20 19:16 39.41450 15.65304 24466 ft 382 kts 317°
2026-04-20 19:16 39.43478 15.63066 24959 ft 384 kts 317°
2026-04-20 19:17 39.45520 15.60809 25433 ft 387 kts 317°
2026-04-20 19:17 39.47573 15.58538 25918 ft 390 kts 317°
2026-04-20 19:17 39.49641 15.56249 26371 ft 392 kts 317°
2026-04-20 19:17 39.51718 15.53948 26857 ft 395 kts 317°
2026-04-20 19:18 39.53814 15.51625 27287 ft 397 kts 317°
2026-04-20 19:18 39.55922 15.49286 27712 ft 400 kts 317°
2026-04-20 19:18 39.58042 15.46931 28133 ft 402 kts 317°
2026-04-20 19:18 39.60169 15.44566 28536 ft 405 kts 317°
2026-04-20 19:19 39.62315 15.42179 28930 ft 407 kts 317°
2026-04-20 19:19 39.64472 15.39777 29306 ft 410 kts 317°
2026-04-20 19:19 39.66643 15.37358 29680 ft 412 kts 317°
2026-04-20 19:19 39.68819 15.34931 30040 ft 414 kts 317°
2026-04-20 19:20 39.71012 15.32484 30374 ft 417 kts 317°
2026-04-20 19:20 39.73215 15.30024 30708 ft 418 kts 317°
2026-04-20 19:20 39.75427 15.27554 30998 ft 421 kts 317°
2026-04-20 19:20 39.77654 15.25066 31325 ft 422 kts 317°
2026-04-20 19:21 39.79880 15.22580 31784 ft 421 kts 317°
2026-04-20 19:21 39.82096 15.20101 32231 ft 419 kts 317°
2026-04-20 19:21 39.84305 15.17628 32671 ft 418 kts 317°
2026-04-20 19:21 39.86502 15.15165 33103 ft 416 kts 317°
2026-04-20 19:22 39.88693 15.12706 33513 ft 415 kts 317°
2026-04-20 19:22 39.90876 15.10255 33915 ft 414 kts 317°
2026-04-20 19:22 39.93054 15.07807 34306 ft 413 kts 317°
2026-04-20 19:22 39.95222 15.05367 34647 ft 411 kts 317°
2026-04-20 19:23 39.97384 15.02933 34952 ft 410 kts 317°
2026-04-20 19:23 39.99540 15.00502 35258 ft 409 kts 317°
2026-04-20 19:23 40.01660 14.98111 35545 ft 409 kts 317°
2026-04-20 19:23 40.03807 14.95686 35834 ft 408 kts 317°
2026-04-20 19:24 40.05950 14.93265 36112 ft 407 kts 317°
2026-04-20 19:24 40.08089 14.90847 36385 ft 406 kts 316°
2026-04-20 19:24 40.10217 14.88438 36679 ft 405 kts 316°
2026-04-20 19:24 40.12342 14.86030 36936 ft 404 kts 316°
2026-04-20 19:25 40.14459 14.83630 37186 ft 403 kts 316°
2026-04-20 19:25 40.16574 14.81229 37427 ft 403 kts 316°
2026-04-20 19:25 40.18687 14.78829 37697 ft 402 kts 316°
2026-04-20 19:25 40.20796 14.76432 37927 ft 401 kts 316°
2026-04-20 19:26 40.22904 14.74034 38031 ft 401 kts 316°
2026-04-20 19:26 40.27101 14.69253 38037 ft 399 kts 316°
2026-04-20 19:27 40.31296 14.64465 38038 ft 400 kts 316°
2026-04-20 19:27 40.35487 14.59675 38037 ft 400 kts 316°
2026-04-20 19:28 40.39676 14.54878 38036 ft 400 kts 316°
2026-04-20 19:28 40.43862 14.50076 38044 ft 400 kts 316°
2026-04-20 19:29 40.48045 14.45269 38036 ft 400 kts 316°
2026-04-20 19:29 40.52224 14.40459 38033 ft 399 kts 316°
2026-04-20 19:30 40.56402 14.35642 38028 ft 399 kts 316°
2026-04-20 19:30 40.60317 14.30509 38029 ft 397 kts 310°
2026-04-20 19:31 40.64023 14.25132 38022 ft 397 kts 310°
2026-04-20 19:31 40.67741 14.19767 38025 ft 396 kts 310°
2026-04-20 19:32 40.71426 14.14423 38028 ft 397 kts 310°
2026-04-20 19:32 40.75135 14.09030 38022 ft 397 kts 310°
2026-04-20 19:33 40.78835 14.03640 38021 ft 396 kts 310°
2026-04-20 19:33 40.82532 13.98245 38019 ft 396 kts 310°
2026-04-20 19:34 40.86227 13.92842 38019 ft 396 kts 310°
2026-04-20 19:34 40.89917 13.87438 38018 ft 396 kts 310°
2026-04-20 19:35 40.93603 13.82028 38015 ft 396 kts 310°
2026-04-20 19:35 40.97286 13.76614 38026 ft 396 kts 310°
2026-04-20 19:36 41.00969 13.71191 38026 ft 396 kts 310°
2026-04-20 19:36 41.04647 13.65765 38026 ft 396 kts 310°
2026-04-20 19:37 41.08323 13.60332 38023 ft 395 kts 310°
2026-04-20 19:37 41.11991 13.54902 38022 ft 395 kts 310°
2026-04-20 19:38 41.15653 13.49469 38000 ft 395 kts 310°
2026-04-20 19:38 41.19314 13.44029 38009 ft 395 kts 309°
2026-04-20 19:39 41.22971 13.38584 38018 ft 395 kts 309°
2026-04-20 19:39 41.26556 13.33047 38018 ft 395 kts 308°
2026-04-20 19:40 41.30085 13.27452 38017 ft 395 kts 308°
2026-04-20 19:40 41.33624 13.21868 38027 ft 395 kts 308°
2026-04-20 19:41 41.37171 13.16277 38021 ft 395 kts 308°
2026-04-20 19:41 41.40711 13.10685 38011 ft 395 kts 308°
2026-04-20 19:42 41.44348 13.05255 38007 ft 397 kts 317°
2026-04-20 19:42 41.48569 13.00492 37993 ft 398 kts 317°
2026-04-20 19:43 41.52816 12.95746 37994 ft 398 kts 317°
2026-04-20 19:43 41.57079 12.91034 37995 ft 398 kts 317°
2026-04-20 19:44 41.61355 12.86314 37996 ft 398 kts 317°
2026-04-20 19:44 41.65623 12.81589 37999 ft 399 kts 317°
2026-04-20 19:45 41.69891 12.76855 38012 ft 399 kts 317°
2026-04-20 19:45 41.74159 12.72112 38000 ft 399 kts 317°
2026-04-20 19:46 41.78431 12.67358 38000 ft 399 kts 317°
2026-04-20 19:46 41.82700 12.62596 38002 ft 399 kts 317°
2026-04-20 19:47 41.86968 12.57827 38002 ft 399 kts 317°
2026-04-20 19:47 41.91233 12.53053 37973 ft 399 kts 317°
2026-04-20 19:48 41.95493 12.48276 37978 ft 399 kts 317°
2026-04-20 19:48 41.99749 12.43496 37974 ft 398 kts 317°
2026-04-20 19:49 42.03996 12.38716 37973 ft 398 kts 317°
2026-04-20 19:49 42.08237 12.33936 37974 ft 397 kts 317°
2026-04-20 19:50 42.12475 12.29149 37988 ft 397 kts 317°
2026-04-20 19:50 42.16703 12.24366 37984 ft 397 kts 317°
2026-04-20 19:51 42.20927 12.19579 37982 ft 397 kts 317°
2026-04-20 19:51 42.25148 12.14785 37984 ft 396 kts 317°
2026-04-20 19:52 42.29362 12.09992 37982 ft 396 kts 317°
2026-04-20 19:52 42.33576 12.05189 37985 ft 397 kts 317°
2026-04-20 19:53 42.37796 12.00372 37989 ft 397 kts 317°
2026-04-20 19:53 42.42017 11.95544 37997 ft 397 kts 317°
2026-04-20 19:54 42.46236 11.90711 37996 ft 398 kts 316°
2026-04-20 19:54 42.50457 11.85865 37994 ft 398 kts 316°
2026-04-20 19:55 42.54672 11.81018 37990 ft 398 kts 316°
2026-04-20 19:55 42.58890 11.76158 37991 ft 398 kts 316°
2026-04-20 19:56 42.62392 11.72115 37991 ft 398 kts 316°
2026-04-20 19:56 42.66613 11.67235 37976 ft 399 kts 316°
2026-04-20 19:57 42.70835 11.62346 37976 ft 399 kts 316°
2026-04-20 19:57 42.75056 11.57448 37977 ft 399 kts 316°
2026-04-20 19:58 42.79278 11.52542 37974 ft 399 kts 316°
2026-04-20 19:58 42.83498 11.47624 37979 ft 399 kts 316°
2026-04-20 19:59 42.87722 11.42694 37987 ft 400 kts 316°
2026-04-20 19:59 42.91951 11.37751 37994 ft 400 kts 316°
2026-04-20 20:00 42.96179 11.32800 37975 ft 400 kts 316°
2026-04-20 20:00 43.00403 11.27845 37965 ft 399 kts 316°
2026-04-20 20:01 43.04592 11.22920 37971 ft 397 kts 316°
2026-04-20 20:01 43.08792 11.17971 37983 ft 398 kts 316°
2026-04-20 20:02 43.12977 11.13032 37962 ft 397 kts 316°
2026-04-20 20:02 43.17156 11.08090 37965 ft 398 kts 316°
2026-04-20 20:03 43.21345 11.03129 37969 ft 398 kts 316°
2026-04-20 20:03 43.25532 10.98159 37964 ft 398 kts 316°
2026-04-20 20:04 43.29718 10.93182 37958 ft 399 kts 316°
2026-04-20 20:04 43.33909 10.88188 37955 ft 398 kts 316°
2026-04-20 20:05 43.38078 10.83213 37956 ft 397 kts 316°
2026-04-20 20:05 43.42248 10.78227 37961 ft 397 kts 316°
2026-04-20 20:06 43.46411 10.73239 37954 ft 397 kts 316°
2026-04-20 20:06 43.50579 10.68237 37954 ft 397 kts 316°
2026-04-20 20:07 43.54737 10.63236 37946 ft 397 kts 315°
2026-04-20 20:07 43.58903 10.58216 37945 ft 397 kts 315°
2026-04-20 20:08 43.63064 10.53193 37965 ft 397 kts 315°
2026-04-20 20:08 43.67218 10.48168 37965 ft 397 kts 315°
2026-04-20 20:09 43.71375 10.43131 37651 ft 397 kts 315°
2026-04-20 20:09 43.73445 10.40619 37373 ft 396 kts 315°
2026-04-20 20:09 43.75519 10.38100 37124 ft 396 kts 315°
2026-04-20 20:09 43.77592 10.35581 36858 ft 397 kts 315°
2026-04-20 20:10 43.79666 10.33059 36594 ft 397 kts 315°
2026-04-20 20:10 43.81755 10.30551 36221 ft 399 kts 317°
2026-04-20 20:10 43.83989 10.28300 35492 ft 407 kts 323°
2026-04-20 20:10 43.86471 10.26336 34740 ft 413 kts 328°
2026-04-20 20:11 43.89056 10.24586 33971 ft 415 kts 328°
2026-04-20 20:11 43.91647 10.22821 33176 ft 414 kts 328°
2026-04-20 20:11 43.94268 10.21028 32393 ft 414 kts 328°
2026-04-20 20:11 43.96809 10.19287 31642 ft 414 kts 328°
2026-04-20 20:12 43.99397 10.17513 30762 ft 416 kts 328°
2026-04-20 20:12 44.01991 10.15734 30081 ft 414 kts 328°
2026-04-20 20:12 44.04428 10.13717 29537 ft 402 kts 319°
2026-04-20 20:13 44.08313 10.08477 28464 ft 381 kts 304°
2026-04-20 20:13 44.09799 10.05476 27943 ft 374 kts 301°
2026-04-20 20:13 44.11250 10.02504 27439 ft 368 kts 302°
2026-04-20 20:13 44.12686 9.99578 26937 ft 364 kts 302°
2026-04-20 20:14 44.14102 9.96690 26441 ft 359 kts 302°
2026-04-20 20:14 44.15498 9.93831 25944 ft 355 kts 302°
2026-04-20 20:14 44.16875 9.91007 25443 ft 351 kts 302°
2026-04-20 20:14 44.18238 9.88207 24958 ft 347 kts 302°
2026-04-20 20:15 44.19585 9.85433 24446 ft 345 kts 302°
2026-04-20 20:15 44.20924 9.82676 23998 ft 341 kts 302°
2026-04-20 20:15 44.22248 9.79947 23514 ft 340 kts 302°
2026-04-20 20:15 44.23612 9.77128 22975 ft 360 kts 302°
2026-04-20 20:16 44.25030 9.74197 22457 ft 368 kts 302°
2026-04-20 20:16 44.26464 9.71232 21927 ft 368 kts 302°
2026-04-20 20:16 44.27888 9.68287 21406 ft 364 kts 302°
2026-04-20 20:16 44.29292 9.65381 20885 ft 359 kts 302°
2026-04-20 20:17 44.30697 9.62527 20372 ft 353 kts 306°
2026-04-20 20:17 44.32317 9.59984 19875 ft 350 kts 314°
2026-04-20 20:17 44.34194 9.57829 19340 ft 349 kts 322°
2026-04-20 20:17 44.36263 9.56060 18818 ft 347 kts 326°
2026-04-20 20:18 44.38336 9.54373 18290 ft 344 kts 326°
2026-04-20 20:18 44.40391 9.52685 17724 ft 341 kts 326°
2026-04-20 20:18 44.42420 9.51013 17220 ft 336 kts 326°
2026-04-20 20:18 44.44426 9.49361 16785 ft 331 kts 326°
2026-04-20 20:19 44.46370 9.47763 16631 ft 317 kts 326°
2026-04-20 20:19 44.48232 9.46233 16472 ft 305 kts 326°
2026-04-20 20:19 44.50038 9.44745 16165 ft 298 kts 326°
2026-04-20 20:19 44.51811 9.43278 15908 ft 295 kts 326°
2026-04-20 20:20 44.53587 9.41807 15662 ft 297 kts 326°
2026-04-20 20:20 44.55366 9.40334 15405 ft 296 kts 326°
2026-04-20 20:20 44.57134 9.38871 15110 ft 294 kts 326°
2026-04-20 20:20 44.58928 9.37513 14739 ft 294 kts 333°
2026-04-20 20:21 44.60878 9.36666 14366 ft 295 kts 345°
2026-04-20 20:21 44.62929 9.36365 13972 ft 298 kts 352°
2026-04-20 20:21 44.64993 9.36179 13574 ft 296 kts 351°
2026-04-20 20:21 44.67038 9.35978 13180 ft 293 kts 351°
2026-04-20 20:22 44.69019 9.35780 13021 ft 283 kts 351°
2026-04-20 20:22 44.70975 9.35585 12755 ft 275 kts 351°
2026-04-20 20:22 44.72892 9.35404 12185 ft 279 kts 351°
2026-04-20 20:22 44.74868 9.35174 11394 ft 290 kts 351°
2026-04-20 20:23 44.76896 9.34930 10573 ft 303 kts 352°
2026-04-20 20:23 44.79022 9.34689 10014 ft 306 kts 353°
2026-04-20 20:23 44.81101 9.34472 9878 ft 293 kts 353°
2026-04-20 20:23 44.83107 9.34267 9576 ft 288 kts 353°
2026-04-20 20:24 44.85098 9.34062 9153 ft 286 kts 353°
2026-04-20 20:24 44.87081 9.33857 8722 ft 285 kts 353°
2026-04-20 20:24 44.89060 9.33652 8289 ft 285 kts 354°
2026-04-20 20:24 44.91029 9.33448 7894 ft 283 kts 354°
2026-04-20 20:25 44.92957 9.33249 7740 ft 271 kts 354°
2026-04-20 20:25 44.94798 9.33061 7636 ft 259 kts 354°
2026-04-20 20:25 44.96553 9.32881 7533 ft 247 kts 354°
2026-04-20 20:25 44.98230 9.32707 7371 ft 238 kts 354°
2026-04-20 20:26 44.99879 9.32530 7076 ft 237 kts 354°
2026-04-20 20:26 45.01528 9.32349 6761 ft 237 kts 354°
2026-04-20 20:26 45.03167 9.32168 6459 ft 236 kts 354°
2026-04-20 20:26 45.04810 9.31987 6160 ft 236 kts 354°
2026-04-20 20:27 45.06442 9.31810 5866 ft 235 kts 354°
2026-04-20 20:27 45.08068 9.31634 5560 ft 234 kts 354°
2026-04-20 20:27 45.09685 9.31458 5259 ft 233 kts 355°
2026-04-20 20:27 45.11299 9.31283 4968 ft 232 kts 355°
2026-04-20 20:28 45.12366 9.31167 4780 ft 232 kts 355°
2026-04-20 20:28 45.14507 9.30935 4390 ft 230 kts 355°
2026-04-20 20:28 45.16101 9.30761 4102 ft 229 kts 355°
2026-04-20 20:28 45.17687 9.30588 3818 ft 228 kts 355°
2026-04-20 20:29 45.19263 9.30416 3551 ft 227 kts 355°
2026-04-20 20:29 45.20831 9.30246 3299 ft 225 kts 355°
2026-04-20 20:29 45.22391 9.30070 3049 ft 223 kts 355°
2026-04-20 20:29 45.23906 9.29902 2990 ft 214 kts 355°
2026-04-20 20:30 45.25422 9.29740 2994 ft 218 kts 355°
2026-04-20 20:30 45.26881 9.29586 2990 ft 202 kts 355°
2026-04-20 20:30 45.28234 9.29442 2997 ft 194 kts 355°
2026-04-20 20:30 45.29571 9.29300 3016 ft 185 kts 355°
2026-04-20 20:31 45.30822 9.29167 2813 ft 177 kts 355°
2026-04-20 20:31 45.32033 9.29038 2579 ft 172 kts 354°
2026-04-20 20:31 45.33192 9.28915 2364 ft 161 kts 354°
2026-04-20 20:31 45.34259 9.28802 2167 ft 147 kts 353°
2026-04-20 20:32 45.35254 9.28695 1983 ft 145 kts 353°
2026-04-20 20:32 45.36260 9.28580 1805 ft 144 kts 353°
2026-04-20 20:32 45.37253 9.28467 1619 ft 143 kts 354°
2026-04-20 20:32 45.38250 9.28398 1441 ft 143 kts 355°
2026-04-20 20:33 45.39245 9.28309 1210 ft 144 kts 354°
2026-04-20 20:33 45.40240 9.28185 1051 ft 150 kts 353°
2026-04-20 20:33 45.41272 9.28044 859 ft 147 kts 355°
2026-04-20 20:33 45.42277 9.27934 644 ft 146 kts 356°
2026-04-20 20:34 45.43263 9.27835 430 ft 139 kts 357°
2026-04-20 20:34 45.44178 9.27746 351 ft 118 kts 356°
2026-04-20 20:34 45.44731 9.27690 361 ft 61 kts 355°
2026-04-20 20:34 45.45132 9.27649 364 ft 54 kts 356°
2026-04-20 20:35 45.45393 9.27720 366 ft 29 kts 30°
2026-04-20 20:35 45.45497 9.27818 365 ft 16 kts
2026-04-20 20:35 45.45614 9.27815 363 ft 18 kts
2026-04-20 20:35 45.45746 9.27820 363 ft 14 kts
2026-04-20 20:36 45.45819 9.27823 365 ft 12 kts
2026-04-20 20:36 45.45892 9.27832 363 ft 1 kts 32°
2026-04-20 20:36 45.45910 9.27845 364 ft 5 kts 23°
2026-04-20 20:36 45.45947 9.27849 363 ft 6 kts 356°
2026-04-20 20:37 45.45964 9.27849 365 ft 0 kts 360°
2026-04-20 20:37 45.45971 9.27849 366 ft 0 kts